When you browse on this site, cookies collect data to enhance your experience and personalize the content and advertising you see.
Visit our Privacy Policy to learn more. By continuing to use the site, you agree to this use of cookies and data.
  • In Austria
  • List of Countries
  • For 7 days
  • Water Temperature
  • Satellite Maps
  • Weather Map
  • News
  • Weather Widgets
  • user-avatar
    Login

    Hourly Weather Vinnitsa

    Today, 23 April, Tuesday

    Time Temperature Precipitation Wind Pressure Humidity
    00:00 +7°C° 0 mm 2 mps 744 mmHg 60%
    01:00 +7°C° 0 mm 2 mps 744 mmHg 61%
    02:00 +7°C° 0 mm 2 mps 744 mmHg 62%
    03:00 +6°C° 0 mm 2 mps 744 mmHg 62%
    04:00 +6°C° 0 mm 2 mps 744 mmHg 62%
    05:00 +6°C° 0 mm 2 mps 744 mmHg 62%
    06:00 +8°C° 0 mm 3 mps 744 mmHg 60%
    07:00 +9°C° 0 mm 3 mps 745 mmHg 58%
    08:00 +11°C° 0 mm 4 mps 745 mmHg 56%
    09:00 +12°C° 0 mm 4 mps 745 mmHg 50%
    10:00 +14°C° 0 mm 5 mps 745 mmHg 44%
    11:00 +15°C° 0 mm 6 mps 745 mmHg 38%
    12:00 +15°C° 0 mm 5 mps 745 mmHg 38%
    13:00 +15°C° 0 mm 5 mps 745 mmHg 38%
    14:00 +15°C° 0 mm 5 mps 745 mmHg 38%
    15:00 +15°C° 0 mm 5 mps 745 mmHg 40%
    16:00 +15°C° 0 mm 5 mps 744 mmHg 42%
    17:00 +15°C° 0 mm 5 mps 744 mmHg 44%
    18:00 +14°C° 0 mm 4 mps 744 mmHg 46%
    19:00 +13°C° 0 mm 4 mps 744 mmHg 48%
    20:00 +12°C° 0 mm 3 mps 744 mmHg 51%
    21:00 +11°C° 0 mm 3 mps 744 mmHg 54%
    22:00 +10°C° 0 mm 3 mps 744 mmHg 57%
    23:00 +9°C° 0 mm 3 mps 744 mmHg 60%

    Tomorrow, 24 April, Wednesday

    Time Temperature Precipitation Wind Pressure Humidity
    00:00 +8°C° 0 mm 3 mps 744 mmHg 62%
    01:00 +8°C° 0 mm 3 mps 744 mmHg 64%
    02:00 +7°C° 0 mm 3 mps 745 mmHg 66%
    03:00 +7°C° 0 mm 3 mps 744 mmHg 67%
    04:00 +5°C° 0 mm 3 mps 744 mmHg 67%
    05:00 +5°C° 0 mm 3 mps 744 mmHg 68%
    06:00 +7°C° 0 mm 4 mps 744 mmHg 63%
    07:00 +8°C° 0 mm 5 mps 744 mmHg 58%
    08:00 +10°C° 0 mm 5 mps 745 mmHg 53%
    09:00 +11°C° 0 mm 6 mps 745 mmHg 49%
    10:00 +14°C° 0 mm 6 mps 745 mmHg 45%
    11:00 +15°C° 0 mm 7 mps 745 mmHg 41%
    12:00 +15°C° 0 mm 7 mps 745 mmHg 40%
    13:00 +16°C° 0 mm 6 mps 745 mmHg 40%
    14:00 +16°C° 0 mm 6 mps 744 mmHg 39%
    15:00 +16°C° 0 mm 6 mps 744 mmHg 41%
    16:00 +16°C° 0 mm 6 mps 744 mmHg 44%
    17:00 +16°C° 0 mm 5 mps 744 mmHg 46%
    18:00 +14°C° 0 mm 5 mps 744 mmHg 51%
    19:00 +13°C° 0 mm 4 mps 744 mmHg 56%
    20:00 +11°C° 0 mm 3 mps 744 mmHg 61%
    21:00 +11°C° 0 mm 3 mps 744 mmHg 63%
    22:00 +10°C° 0 mm 3 mps 744 mmHg 65%
    23:00 +9°C° 0 mm 3 mps 744 mmHg 67%

    Day after tomorrow, 25 April, Thursday

    Time Temperature Precipitation Wind Pressure Humidity
    00:00 +9°C° 0 mm 3 mps 744 mmHg 68%
    01:00 +8°C° 0 mm 3 mps 744 mmHg 69%
    02:00 +8°C° 0 mm 3 mps 744 mmHg 69%
    03:00 +8°C° 0 mm 3 mps 744 mmHg 71%
    04:00 +7°C° 0 mm 3 mps 744 mmHg 72%
    05:00 +7°C° 0 mm 3 mps 744 mmHg 73%
    06:00 +8°C° 0 mm 3 mps 744 mmHg 69%
    07:00 +10°C° 0 mm 4 mps 744 mmHg 65%
    08:00 +12°C° 0 mm 4 mps 744 mmHg 61%
    09:00 +13°C° 0 mm 5 mps 744 mmHg 56%
    10:00 +15°C° 0 mm 5 mps 744 mmHg 52%
    11:00 +16°C° 0 mm 6 mps 744 mmHg 47%
    12:00 +17°C° 0 mm 6 mps 744 mmHg 46%
    13:00 +19°C° 0 mm 6 mps 744 mmHg 44%
    14:00 +19°C° 0 mm 6 mps 744 mmHg 42%
    15:00 +19°C° 0 mm 5 mps 743 mmHg 44%
    16:00 +19°C° 0 mm 5 mps 743 mmHg 45%
    17:00 +19°C° 0 mm 5 mps 743 mmHg 46%
    18:00 +17°C° 0 mm 4 mps 742 mmHg 52%
    19:00 +14°C° 0 mm 4 mps 742 mmHg 57%
    20:00 +13°C° 0 mm 3 mps 742 mmHg 62%
    21:00 +12°C° 0 mm 3 mps 742 mmHg 62%
    22:00 +12°C° 0 mm 4 mps 742 mmHg 63%
    23:00 +11°C° 0 mm 4 mps 742 mmHg 64%

    26 April, Friday

    Time Temperature Precipitation Wind Pressure Humidity
    00:00 +11°C° 0 mm 3 mps 742 mmHg 66%
    01:00 +10°C° 0 mm 3 mps 742 mmHg 68%
    02:00 +10°C° 0 mm 3 mps 742 mmHg 70%
    03:00 +9°C° 0 mm 3 mps 742 mmHg 72%
    04:00 +9°C° 0 mm 3 mps 742 mmHg 74%
    05:00 +8°C° 0 mm 3 mps 741 mmHg 76%
    06:00 +10°C° 0 mm 4 mps 742 mmHg 70%
    07:00 +11°C° 0 mm 4 mps 742 mmHg 64%
    08:00 +13°C° 0 mm 5 mps 742 mmHg 58%
    09:00 +14°C° 0 mm 5 mps 742 mmHg 52%
    10:00 +16°C° 0 mm 5 mps 741 mmHg 46%
    11:00 +17°C° 0 mm 6 mps 741 mmHg 41%
    12:00 +19°C° 0 mm 6 mps 741 mmHg 40%
    13:00 +19°C° 0 mm 6 mps 741 mmHg 39%
    14:00 +20°C° 0 mm 6 mps 740 mmHg 38%
    15:00 +20°C° 0 mm 5 mps 740 mmHg 40%
    16:00 +20°C° 0 mm 5 mps 740 mmHg 42%
    17:00 +19°C° 0 mm 5 mps 739 mmHg 44%
    18:00 +18°C° 0 mm 4 mps 739 mmHg 48%
    19:00 +15°C° 0 mm 4 mps 739 mmHg 52%
    20:00 +14°C° 0 mm 4 mps 739 mmHg 55%
    21:00 +13°C° 0 mm 4 mps 739 mmHg 56%
    22:00 +13°C° 0 mm 4 mps 739 mmHg 57%
    23:00 +12°C° 0 mm 4 mps 738 mmHg 58%

    27 April, Saturday

    Time Temperature Precipitation Wind Pressure Humidity
    00:00 +12°C° 0 mm 4 mps 738 mmHg 58%
    01:00 +12°C° 0 mm 4 mps 738 mmHg 59%
    02:00 +11°C° 0 mm 4 mps 738 mmHg 60%
    03:00 +11°C° 0 mm 4 mps 738 mmHg 62%
    04:00 +10°C° 0 mm 4 mps 737 mmHg 64%
    05:00 +10°C° 0 mm 4 mps 737 mmHg 66%
    06:00 +10°C° 0 mm 5 mps 737 mmHg 62%
    07:00 +13°C° 0 mm 6 mps 737 mmHg 58%
    08:00 +14°C° 0 mm 6 mps 737 mmHg 54%
    09:00 +15°C° 0 mm 6 mps 737 mmHg 51%
    10:00 +17°C° 0 mm 6 mps 737 mmHg 48%
    11:00 +18°C° 0 mm 7 mps 737 mmHg 44%
    12:00 +20°C° 0 mm 7 mps 737 mmHg 44%
    13:00 +20°C° 0 mm 6 mps 736 mmHg 44%
    14:00 +21°C° 0 mm 6 mps 736 mmHg 44%
    15:00 +21°C° 0 mm 6 mps 736 mmHg 47%
    16:00 +21°C° 0 mm 5 mps 735 mmHg 50%
    17:00 +20°C° 0 mm 5 mps 735 mmHg 53%
    18:00 +19°C° 0 mm 4 mps 735 mmHg 57%
    19:00 +17°C° 0 mm 3 mps 735 mmHg 61%
    20:00 +16°C° 0 mm 3 mps 735 mmHg 65%
    21:00 +14°C° 0 mm 3 mps 735 mmHg 67%
    22:00 +14°C° 0 mm 3 mps 735 mmHg 69%
    23:00 +13°C° 0 mm 3 mps 735 mmHg 71%

    28 April, Sunday

    Time Temperature Precipitation Wind Pressure Humidity
    00:00 +13°C° 0 mm 3 mps 735 mmHg 71%
    01:00 +12°C° 0 mm 3 mps 735 mmHg 71%
    02:00 +12°C° 0 mm 3 mps 735 mmHg 71%
    03:00 +11°C° 0 mm 3 mps 735 mmHg 72%
    04:00 +11°C° 0 mm 3 mps 735 mmHg 72%
    05:00 +10°C° 0 mm 3 mps 735 mmHg 72%
    06:00 +12°C° 0 mm 3 mps 735 mmHg 69%
    07:00 +13°C° 0 mm 3 mps 735 mmHg 66%
    08:00 +14°C° 0 mm 4 mps 735 mmHg 63%
    09:00 +15°C° 0 mm 4 mps 735 mmHg 57%
    10:00 +17°C° 0 mm 5 mps 735 mmHg 51%
    11:00 +19°C° 0 mm 5 mps 735 mmHg 45%
    12:00 +20°C° 0 mm 5 mps 735 mmHg 44%
    13:00 +20°C° 0 mm 5 mps 735 mmHg 44%
    14:00 +21°C° 0 mm 5 mps 735 mmHg 43%
    15:00 +21°C° 0 mm 5 mps 734 mmHg 45%
    16:00 +20°C° 0 mm 5 mps 734 mmHg 47%
    17:00 +20°C° 0 mm 4 mps 734 mmHg 49%
    18:00 +18°C° 0 mm 4 mps 734 mmHg 55%
    19:00 +16°C° 0 mm 3 mps 734 mmHg 61%
    20:00 +15°C° 0 mm 2 mps 734 mmHg 68%
    21:00 +14°C° 0 mm 2 mps 735 mmHg 74%
    22:00 +13°C° 0 mm 2 mps 735 mmHg 80%
    23:00 +12°C° 0 mm 2 mps 735 mmHg 86%
    Show more